Theta_e
308 308 309 309 308 308 308 309 309 309 309 309 309 309 309 309 309 309 309 309 309 309 310 310 310 310 311 311 311 311 312 312 312 315 317 318 318 319 318 316 314 313 313 314 316 315 316 316 316 315 317 320 320 322 321 322 328 335 336 327 327 330 328 329 323 317 319 319 319 318 317 316 316 316 317 317 318 319 319 319 317 316 317 316 316 315 318 321
310 310 310 310 309 310 310 310 310 310 310 310 310 310 310 310 310 310 310 311 311 311 311 312 312 313 313 313 313 313 313 312 315 319 319 319 321 320 317 315 315 313 313 315 316 315 316 317 315 316 320 322 322 321 322 323 326 332 332 326 332 335 330 325 319 317 317 316 318 319 317 318 317 315 316 316 317 318 317 317 317 317 317 315 314 314 319 320
311 312 311 311 310 310 310 311 311 311 312 311 311 311 311 311 311 312 312 313 313 313 313 314 315 315 315 316 316 315 314 315 320 323 319 318 319 318 315 314 314 314 313 315 316 315 316 317 314 317 321 320 322 323 324 323 324 331 328 326 335 334 326 322 319 318 317 316 318 319 318 318 318 316 316 315 317 319 318 318 317 318 317 316 316 316 319 320
312 312 312 311 311 311 311 311 312 312 312 312 311 311 312 312 313 313 313 314 314 315 315 315 315 315 316 316 317 317 315 318 322 320 315 315 315 315 314 314 314 313 314 316 317 316 316 316 314 317 319 319 324 325 325 325 323 327 325 328 335 328 321 323 322 319 318 319 318 319 319 319 318 316 315 316 317 317 318 318 318 318 316 316 317 316 317 318
314 312 312 312 312 312 312 312 312 312 312 312 312 312 313 313 314 314 314 314 314 314 314 314 313 313 314 315 316 318 317 317 319 316 314 315 314 315 315 314 314 313 314 316 317 316 316 315 314 317 318 319 322 320 324 327 322 323 324 327 330 324 321 321 320 318 319 319 319 320 319 318 318 316 315 316 316 315 316 317 318 318 316 316 315 315 316 318
315 314 313 313 313 313 313 313 312 312 313 313 313 313 313 313 313 313 313 314 313 313 313 313 313 312 312 313 316 317 317 316 317 315 314 315 314 315 315 314 314 313 315 316 316 315 316 316 314 318 318 318 319 318 321 322 320 322 324 323 323 321 319 318 317 317 317 317 318 319 319 318 317 317 316 315 316 315 315 315 317 316 315 314 313 314 317 321
315 315 314 314 314 313 313 313 313 313 313 313 313 313 314 314 314 314 314 314 314 315 315 316 316 314 312 312 317 320 320 318 318 319 317 315 315 315 314 314 313 313 316 316 315 315 317 316 315 318 318 317 318 318 318 317 318 321 323 323 322 321 320 318 318 317 317 317 318 318 318 317 317 318 317 316 317 315 315 314 315 314 312 312 313 315 317 319
315 315 315 314 314 313 313 313 313 313 313 314 314 314 315 316 316 316 317 317 318 319 319 319 317 316 312 313 321 325 322 321 319 320 319 315 315 314 313 314 313 314 315 315 315 315 317 317 316 317 316 316 317 317 317 316 318 318 319 321 320 319 319 317 317 316 316 315 316 316 317 317 318 318 317 317 317 316 315 314 314 314 313 314 315 315 316 318
315 315 315 315 315 314 314 313 313 314 315 315 315 316 317 318 319 319 321 321 322 321 321 319 316 316 312 313 321 323 321 321 319 320 319 316 314 313 313 314 314 314 315 316 315 314 315 317 317 316 317 318 317 317 317 316 318 317 316 317 317 316 316 315 316 315 315 314 314 314 315 315 316 317 317 317 317 317 315 314 315 314 315 315 315 316 316 318
315 315 314 314 314 314 314 314 315 316 317 318 318 319 320 321 321 322 322 322 322 321 319 317 315 315 312 314 320 320 320 321 320 321 318 315 314 313 314 316 315 314 315 316 315 315 315 316 317 317 317 317 316 316 316 315 316 316 315 316 316 316 315 314 315 314 314 314 313 313 314 314 315 317 316 316 317 317 315 315 314 314 315 315 315 317 315 315
315 315 314 314 314 314 315 316 319 320 321 321 320 321 322 322 322 322 323 321 320 318 317 315 314 315 315 316 321 319 319 319 318 319 317 314 314 313 316 318 317 315 315 316 316 316 316 316 316 316 316 315 314 315 316 314 315 315 315 315 316 316 315 314 314 314 313 313 314 314 313 313 314 316 316 315 316 315 315 314 314 314 314 315 315 315 315 315
315 315 315 315 315 316 318 320 321 322 322 322 322 322 322 322 323 322 322 319 318 317 315 315 313 314 317 319 321 319 317 318 317 316 316 316 316 315 317 318 318 316 316 317 316 316 315 316 316 317 316 315 315 315 314 314 313 315 315 315 316 315 314 315 314 314 313 313 316 314 314 316 316 316 317 315 315 314 315 315 315 314 314 314 315 315 317 315
316 316 315 315 316 319 321 322 322 322 322 322 322 322 322 323 323 322 321 318 317 316 314 314 312 313 318 321 320 316 317 318 317 316 316 317 316 315 317 318 317 316 317 317 316 315 314 315 315 316 316 316 316 314 314 313 313 315 314 314 316 316 316 316 314 315 313 313 316 315 316 321 319 317 318 316 315 315 316 316 315 315 314 314 314 316 318 314
316 315 315 316 318 320 321 322 323 323 322 322 322 322 323 322 322 322 319 316 315 314 313 313 312 315 319 321 318 315 317 317 317 317 316 316 315 315 315 316 317 316 316 316 316 315 314 314 314 315 315 316 317 315 315 314 314 314 313 316 317 316 320 319 315 316 315 314 315 314 317 321 319 318 319 317 317 316 317 317 317 316 314 314 315 315 315 311
316 315 315 317 319 321 322 322 322 322 322 323 322 322 322 322 322 320 317 315 313 312 313 312 312 317 319 319 316 314 315 316 317 317 315 316 316 316 314 314 316 315 315 315 315 315 314 314 314 316 316 316 315 315 316 317 318 315 314 322 322 317 321 321 316 316 316 314 313 313 318 319 317 317 318 318 318 317 317 317 316 315 314 314 313 312 311 310
315 315 316 318 320 322 322 322 322 322 322 323 323 322 322 322 321 318 315 314 312 313 316 316 315 317 318 317 315 313 314 315 316 317 315 315 317 316 314 314 314 314 314 313 313 314 313 314 315 316 316 316 315 315 318 320 322 320 316 322 324 319 319 320 319 318 317 316 313 313 317 318 317 318 319 318 317 316 316 315 314 314 314 313 311 310 311 310
315 316 317 319 321 322 322 322 322 323 323 323 323 322 322 323 320 317 314 314 314 314 316 318 316 315 316 315 316 316 315 315 316 316 315 314 316 316 314 314 313 313 313 312 312 312 313 313 314 315 314 315 316 315 319 321 323 324 320 319 322 320 318 320 323 321 317 317 316 315 315 314 316 318 318 317 316 315 314 314 315 315 313 312 311 310 310 309
316 316 318 320 321 321 321 322 323 324 324 323 323 323 323 323 320 316 315 317 317 316 316 316 314 318 320 317 316 317 316 315 315 314 313 314 316 315 314 314 313 313 312 313 314 312 313 315 315 317 316 315 315 313 319 323 322 324 323 321 322 321 320 320 320 320 319 318 318 318 317 316 316 317 316 316 315 315 314 314 315 314 312 311 311 311 309 308
316 317 319 320 320 320 320 321 322 324 324 324 324 323 324 323 320 316 316 318 322 325 325 320 318 324 324 320 317 316 315 314 314 313 312 314 316 315 314 314 313 314 314 317 317 314 315 317 317 318 319 317 315 313 316 320 319 321 322 321 321 321 321 320 318 319 319 318 319 319 318 318 318 318 317 316 315 315 315 314 314 313 312 311 310 309 308 307
317 318 319 321 320 320 321 322 322 323 324 324 324 324 326 327 328 324 319 320 322 325 326 320 319 321 321 320 318 315 314 313 315 316 313 312 314 314 314 314 315 315 317 322 321 315 316 320 320 320 321 319 316 314 313 315 316 317 318 319 322 322 321 319 318 320 318 317 321 321 318 319 318 318 316 315 315 315 315 315 314 313 311 311 310 308 307 306
319 320 320 321 321 320 321 322 323 323 323 324 323 324 324 325 328 326 324 324 320 318 320 320 318 319 319 320 317 315 317 316 315 316 314 313 314 315 315 315 317 318 319 322 321 315 316 320 322 320 319 318 317 315 314 315 316 316 318 321 324 324 321 318 318 318 316 317 322 322 318 319 318 316 316 315 315 315 315 315 314 312 311 309 308 307 306 305
321 321 320 320 321 320 320 322 323 323 324 323 322 321 318 317 318 317 319 325 322 317 319 320 320 320 320 320 317 316 320 319 317 316 314 313 314 316 317 316 318 321 320 319 318 317 317 319 319 317 316 317 317 317 317 318 319 320 321 321 323 323 321 323 322 319 316 317 323 324 318 318 318 316 316 315 314 313 313 314 312 310 310 308 307 306 305 304
321 320 320 321 321 320 321 323 323 324 324 323 320 319 316 315 314 312 314 321 322 320 320 321 321 321 322 321 317 317 320 321 321 320 315 313 315 317 317 316 317 320 320 318 319 320 321 320 318 315 315 317 317 319 319 319 321 323 323 321 324 322 320 325 325 320 317 317 320 320 318 319 318 317 317 314 312 312 311 311 310 309 308 307 306 305 304 304
321 320 321 321 321 321 322 323 323 324 325 323 320 318 318 316 313 312 315 320 323 322 319 319 319 320 320 317 315 317 320 320 321 320 314 314 316 317 317 317 316 318 318 318 319 321 322 321 318 317 318 319 320 321 321 320 324 328 326 323 323 322 321 323 323 321 320 323 323 319 321 327 322 317 318 314 311 311 310 309 309 308 307 306 305 305 304 303
322 322 323 322 322 322 322 323 324 324 324 323 321 319 318 316 313 312 316 322 325 323 319 316 317 317 314 313 315 316 317 317 317 316 313 314 316 317 318 317 317 319 320 318 319 321 320 319 320 320 320 321 322 323 325 324 324 328 329 325 323 323 323 323 324 324 323 326 326 318 324 333 327 320 321 315 311 311 310 309 308 307 307 306 305 304 303 303
323 324 324 323 323 322 323 324 324 324 324 322 320 319 317 316 315 313 316 323 327 326 322 318 318 316 312 312 314 315 317 317 313 312 313 314 313 315 316 317 319 320 321 320 321 323 321 319 322 324 323 322 322 324 327 326 323 325 328 327 325 323 322 323 323 323 325 327 322 316 323 328 324 322 323 317 312 311 310 309 308 307 306 305 304 304 303 302
323 324 324 324 324 323 324 325 324 324 325 323 321 320 318 317 315 313 318 328 331 328 322 317 316 315 313 312 312 316 321 318 312 311 313 313 313 313 315 319 319 319 320 321 325 327 322 320 321 322 323 323 323 325 327 325 324 328 327 323 323 321 320 322 319 319 325 324 320 318 318 321 322 322 320 316 314 311 309 308 307 306 305 304 303 303 302 301
324 324 324 324 324 324 324 324 324 323 324 323 321 320 319 316 314 314 322 332 332 325 320 315 312 312 311 311 312 315 316 315 314 313 310 311 312 312 316 319 318 319 319 321 328 329 321 321 324 323 322 324 327 330 328 323 325 329 324 318 320 318 318 320 317 320 323 320 321 322 317 319 326 328 319 315 315 312 310 309 306 305 304 303 303 302 301 300
324 323 324 323 323 323 323 323 324 323 323 322 322 322 319 315 314 317 324 330 328 322 318 313 311 312 312 311 312 313 310 310 314 313 310 311 311 311 315 316 315 315 317 319 326 327 321 320 325 327 324 324 329 331 328 325 323 324 320 319 323 320 319 318 316 319 319 319 323 324 319 320 327 334 324 315 316 314 310 308 305 305 304 303 303 302 301 300
322 322 322 322 322 322 321 322 323 323 322 322 322 321 318 317 320 324 328 327 323 321 316 313 314 314 313 312 313 313 311 311 313 312 312 313 312 311 312 312 312 316 322 322 323 324 319 314 317 323 322 323 327 323 321 323 320 319 320 323 326 324 322 320 320 321 319 322 326 324 322 319 324 336 327 316 316 313 309 307 305 304 303 302 302 300 300 299
320 320 321 320 320 321 321 322 322 322 322 321 321 320 319 322 324 328 329 323 320 321 316 315 316 313 314 317 316 313 312 313 313 314 315 314 314 313 313 314 315 319 326 325 322 321 318 314 317 322 320 320 321 318 319 321 318 319 324 323 322 326 327 322 322 324 321 326 332 326 322 318 322 330 320 312 314 311 309 307 304 303 302 301 301 299 299 298
318 319 319 319 320 320 321 322 321 321 321 321 321 320 322 325 326 327 327 321 322 324 319 319 318 315 317 319 320 318 315 315 314 315 319 319 318 317 317 323 323 321 325 328 327 324 322 322 320 319 318 317 318 320 322 322 318 319 323 320 319 325 327 325 325 324 323 328 330 325 321 320 323 323 314 309 310 309 308 305 303 302 301 300 300 299 298 297
317 317 318 319 320 320 320 320 319 320 321 320 321 323 325 326 326 326 326 324 326 325 322 323 320 319 321 320 322 323 319 318 315 314 318 319 319 319 319 324 325 322 324 327 328 326 325 325 320 317 318 318 319 320 322 324 319 316 319 321 322 325 325 326 326 321 321 326 324 319 317 322 326 318 309 306 304 304 304 303 302 301 300 299 299 298 298 297
316 316 317 319 320 320 319 319 319 320 319 320 324 327 325 325 325 323 324 326 325 323 321 322 320 319 322 323 325 324 321 323 319 314 318 318 318 322 322 320 320 321 323 324 325 325 324 325 323 321 321 319 318 317 322 329 323 316 320 323 324 327 324 321 321 319 322 327 325 319 318 325 327 314 305 304 302 301 301 301 301 300 299 299 298 298 298 297
314 314 316 317 318 319 319 319 320 319 318 320 325 326 323 324 325 324 326 326 324 322 320 321 321 321 323 324 326 324 321 323 321 317 320 321 322 328 330 325 319 319 322 324 324 323 321 323 324 320 317 317 317 318 321 326 323 318 319 320 322 327 324 320 321 321 322 325 323 321 323 322 317 308 304 303 302 301 301 300 300 300 299 299 299 298 298 297
310 311 312 314 315 317 318 319 319 318 319 322 324 322 320 322 325 325 326 323 320 321 321 321 323 323 325 326 325 323 318 320 323 321 322 323 323 328 330 326 322 319 321 324 324 321 320 323 321 316 316 316 317 320 318 318 323 321 317 322 327 325 321 320 324 322 318 320 320 319 321 316 310 308 305 303 303 302 302 301 300 301 300 300 299 299 298 297
307 307 307 308 312 315 316 318 318 317 319 323 322 319 318 319 321 321 322 320 318 319 320 323 324 324 326 326 325 324 320 321 323 323 325 325 322 325 324 321 320 319 319 321 323 322 321 323 322 318 319 317 312 315 317 316 320 321 319 324 324 320 318 320 323 323 320 320 320 317 319 316 314 314 307 303 305 303 301 301 301 300 301 300 300 299 298 298
304 304 305 305 308 312 314 316 317 316 319 321 319 318 318 318 318 317 317 317 316 317 320 323 323 323 324 323 323 325 323 323 324 325 327 325 322 323 321 318 318 316 316 319 323 324 322 321 322 319 318 318 313 315 320 317 314 318 321 321 318 319 322 322 321 322 321 319 320 320 319 318 317 316 310 305 306 304 302 302 302 301 301 300 300 299 298 298
304 307 310 307 305 307 311 315 316 317 320 320 318 318 318 317 316 315 315 315 315 317 319 321 320 320 321 319 320 324 324 323 325 324 324 323 321 321 319 319 318 315 318 321 321 323 323 321 321 319 316 318 318 318 322 319 314 316 319 318 318 319 321 321 319 321 322 319 319 319 319 322 323 319 312 307 305 304 303 303 303 303 302 301 300 299 299 299
305 310 313 308 304 305 309 314 316 318 320 319 317 316 315 314 315 315 314 314 316 317 318 320 320 319 319 318 318 320 321 323 324 322 322 322 320 320 320 321 319 317 319 322 321 321 322 320 321 322 318 317 320 320 323 323 318 317 319 318 318 317 318 319 317 317 320 320 319 318 318 324 324 315 310 307 304 303 304 304 305 304 303 302 301 300 300 299
306 311 312 307 304 306 311 315 316 317 318 316 315 314 313 313 316 317 316 314 315 317 317 318 320 319 318 318 318 317 317 321 322 320 320 320 319 318 318 318 318 317 319 322 321 319 320 319 322 325 321 318 323 322 321 321 317 317 321 321 321 319 318 318 317 316 318 317 318 317 317 321 318 311 307 306 304 305 305 306 307 305 302 302 302 301 301 300
307 310 310 307 306 309 313 315 314 315 316 315 314 314 312 313 314 316 318 316 315 316 316 318 320 320 320 319 320 319 317 319 320 320 319 320 320 319 316 314 316 318 319 320 318 316 319 320 321 322 319 317 320 319 317 316 314 315 317 318 322 323 320 319 318 316 316 316 315 315 315 317 314 309 308 306 305 306 306 307 308 304 301 302 302 301 300 299
308 309 308 306 308 311 313 312 313 314 314 313 312 314 313 313 314 315 318 318 317 317 317 318 318 318 320 319 318 319 318 319 320 320 319 320 318 316 314 315 316 318 319 318 316 317 319 320 320 320 319 317 316 314 315 317 316 316 316 315 317 318 317 317 315 314 315 315 315 315 315 314 311 309 308 307 306 306 306 306 306 304 302 302 301 299 298 298
307 307 307 307 308 311 311 311 312 312 312 312 312 313 313 313 315 316 317 317 318 318 317 317 317 317 318 317 317 318 317 318 319 317 318 320 316 311 313 316 317 317 316 315 317 318 317 317 317 318 317 317 314 312 314 317 317 315 314 314 313 312 312 313 313 313 313 313 314 314 314 313 312 309 307 307 307 308 307 305 304 305 303 301 299 299 298 298
306 306 307 308 307 309 311 310 311 312 311 311 312 312 312 313 313 315 316 316 317 318 317 316 316 316 317 316 315 316 316 316 318 316 317 318 314 310 311 313 315 316 313 312 315 317 315 315 316 315 314 313 313 312 312 314 314 311 311 311 310 309 309 309 310 311 311 312 312 312 312 312 311 310 308 307 307 307 306 304 303 303 302 300 299 299 299 299
306 306 307 307 307 308 310 309 310 311 311 311 311 311 311 311 312 314 316 315 315 316 316 316 316 315 316 316 315 316 316 315 316 316 317 316 313 310 309 309 311 312 311 311 314 316 314 313 314 314 313 311 311 311 311 310 311 310 310 309 309 308 307 307 309 310 310 310 309 309 309 309 308 308 307 306 307 307 306 304 302 301 301 300 300 300 299 299
305 306 306 307 308 308 309 309 310 310 310 311 312 311 311 311 310 311 314 315 315 315 314 314 315 314 315 315 315 316 316 315 315 315 315 315 312 308 307 308 309 309 309 309 312 314 312 311 313 312 312 311 310 310 309 308 309 309 309 308 308 308 307 306 307 308 309 309 308 308 308 307 306 305 303 304 306 307 305 304 303 302 300 300 300 300 299 297
303 305 304 304 307 308 308 309 310 309 309 311 311 312 312 312 311 311 313 314 315 314 314 314 313 314 315 316 315 315 314 313 314 313 313 314 313 309 307 307 307 307 309 308 309 312 312 311 311 310 310 311 309 308 307 306 306 306 306 306 306 305 305 305 305 306 307 307 307 306 305 305 304 303 303 304 304 303 302 302 302 301 299 299 299 298 298 297
301 301 301 302 305 307 307 308 309 308 308 309 310 311 311 311 311 310 312 315 314 313 313 313 313 313 315 315 314 313 313 312 311 311 311 313 313 311 309 309 306 305 307 307 307 309 311 309 309 308 308 308 307 306 305 305 305 304 304 304 304 303 303 303 303 304 305 305 305 304 304 304 303 302 302 302 302 301 299 298 299 299 299 299 298 298 298 298
299 300 301 302 303 304 305 306 308 308 308 308 309 309 309 310 310 309 311 314 314 313 312 312 313 314 314 313 313 312 311 312 312 310 310 311 311 311 311 311 307 304 304 306 305 306 308 307 305 305 306 307 304 302 303 305 304 303 302 302 302 302 302 302 302 302 302 303 303 303 303 302 301 302 301 300 300 299 297 296 296 297 298 298 297 296 297 296
297 297 298 300 303 304 304 305 307 308 308 308 308 308 308 309 309 308 309 311 312 313 312 311 312 313 311 311 312 311 310 311 312 310 309 309 309 309 309 309 307 304 304 304 304 305 307 306 304 303 305 305 302 300 301 302 301 301 301 299 299 300 300 300 301 301 301 301 301 301 301 300 300 301 300 298 297 296 295 295 294 294 295 295 294 294 295 294
295 295 296 299 301 302 303 305 307 307 307 307 306 306 307 308 308 308 308 308 308 309 310 311 310 310 310 310 311 309 307 307 307 306 305 306 305 305 305 305 305 305 304 303 303 305 307 305 305 304 303 302 301 300 300 300 300 300 299 298 298 298 298 299 300 300 300 300 300 300 299 299 301 302 300 296 294 294 294 294 294 293 293 294 293 294 296 295
Wind_Speed
2 2 2 3 3 4 4 4 4 4 4 5 5 5 6 6 6 7 7 8 8 9 9 10 10 11 12 12 14 15 17 18 18 14 10 9 7 5 6 6 4 1 4 6 6 5 3 3 5 5 3 1 1 0 1 0 2 4 3 3 1 3 3 4 2 3 1 3 6 5 3 5 3 5 3 3 3 3 7 7 5 6 7 12 19 17 9 12
3 3 3 3 3 4 4 4 4 4 4 5 5 5 6 6 6 7 8 8 8 9 9 10 10 10 11 11 13 14 17 18 16 14 10 6 2 3 2 1 1 2 6 8 8 7 5 3 5 6 4 1 1 1 0 1 2 3 3 2 3 5 5 4 4 5 3 4 6 5 4 5 2 4 2 2 6 5 6 9 6 8 9 12 17 10 7 14
4 4 4 4 4 4 4 4 4 4 5 5 5 5 6 6 7 7 8 8 9 9 9 10 10 10 10 10 11 13 16 15 10 8 2 5 5 4 3 3 2 2 6 8 7 6 6 4 6 7 3 0 2 1 1 1 0 2 3 2 6 6 5 6 6 7 6 5 5 5 3 4 5 3 2 4 8 6 6 9 7 11 12 9 9 4 11 15
5 5 5 4 5 5 5 5 4 5 5 5 5 6 7 7 8 8 9 9 10 10 10 10 10 10 9 9 10 11 12 8 4 2 5 8 7 6 5 3 3 2 7 8 5 6 7 5 4 6 3 1 2 2 2 3 2 1 4 5 7 4 4 7 7 8 8 5 5 5 5 6 6 2 2 4 7 7 7 9 9 13 15 10 8 5 10 13
5 6 6 5 5 6 5 5 5 6 6 6 7 7 8 9 9 10 11 11 12 12 12 11 11 11 10 8 8 8 7 4 2 4 6 7 7 5 3 2 2 3 8 7 4 5 5 4 2 3 2 1 3 2 3 6 4 2 4 7 7 4 4 7 6 7 6 5 6 6 7 5 4 3 3 3 6 9 8 9 10 13 14 12 10 7 7 10
6 6 6 6 6 6 6 6 6 6 7 7 8 9 10 10 11 12 12 13 13 14 14 13 11 10 9 6 4 4 2 0 3 4 5 5 4 1 1 1 1 5 9 6 3 3 2 1 2 1 1 1 2 2 6 5 5 3 5 5 7 7 6 5 5 6 6 6 6 4 5 2 4 8 4 5 10 13 11 10 10 12 14 15 11 7 6 7
7 6 6 6 6 6 6 6 6 7 7 8 9 10 10 11 12 12 13 13 14 14 14 13 11 10 8 3 2 2 1 4 6 5 7 6 2 3 3 3 2 7 10 6 3 3 3 1 1 3 2 1 4 5 6 4 4 5 5 5 7 7 6 5 5 6 6 6 7 4 6 4 4 8 2 5 12 15 15 12 11 14 15 15 11 8 9 10
8 6 6 5 5 5 5 6 6 7 8 8 9 10 10 11 11 12 13 13 14 14 13 12 10 8 5 1 1 3 1 7 8 6 9 8 4 5 3 3 3 8 9 6 6 3 3 3 4 4 1 3 3 3 4 4 1 5 5 4 4 4 5 6 6 7 8 8 7 5 9 9 8 7 6 10 15 16 16 12 11 13 12 11 10 11 11 10
8 6 5 5 5 5 5 5 5 6 7 8 9 9 10 10 11 11 12 13 13 13 12 10 8 4 2 1 3 2 3 7 7 6 8 6 5 3 2 2 4 9 7 6 7 3 1 3 5 3 2 3 2 3 2 3 2 3 2 3 4 5 6 6 6 9 10 8 6 6 11 11 6 5 8 11 14 15 12 10 10 9 9 10 10 11 10 10
8 5 4 4 4 4 4 4 5 6 7 8 8 9 9 10 11 12 12 13 13 13 11 8 5 1 2 2 5 1 5 5 6 7 6 4 2 2 4 3 4 8 5 4 6 4 1 2 3 3 3 2 2 3 3 1 3 2 3 5 6 6 7 5 7 13 12 8 8 7 11 13 5 3 6 9 12 12 9 10 11 8 9 9 9 9 8 7
7 5 4 3 3 3 3 4 5 6 7 8 9 9 10 11 12 13 13 14 13 12 11 7 3 2 4 4 4 3 5 4 5 4 2 2 3 4 5 3 3 6 5 3 3 4 3 1 1 2 1 1 2 5 6 2 3 3 4 6 9 8 9 9 10 14 9 5 8 8 8 11 2 4 9 13 12 9 8 12 13 10 10 9 7 8 6 6
7 6 5 4 3 3 3 4 5 7 8 9 10 10 11 12 13 14 14 13 13 12 10 7 1 5 5 3 4 7 6 5 4 2 2 2 2 4 6 5 4 6 5 1 3 7 6 4 5 3 2 1 2 4 4 3 3 5 4 4 9 7 8 13 11 11 7 4 5 7 1 7 3 7 13 14 11 8 8 12 13 11 9 7 5 5 5 8
7 6 5 4 3 4 4 5 6 7 9 10 10 10 11 12 13 14 13 12 12 11 9 5 2 6 4 0 5 9 10 9 5 2 2 2 1 3 6 6 6 6 5 2 3 6 6 5 6 3 1 2 2 3 2 2 3 6 4 0 6 6 7 12 8 7 6 3 6 9 1 6 8 12 13 11 8 7 8 10 10 10 8 5 5 6 6 7
6 5 4 3 3 4 4 5 6 7 9 10 10 11 11 12 13 12 11 11 10 9 7 2 4 7 3 3 4 5 10 10 7 5 3 3 3 4 5 5 6 5 4 2 2 3 4 6 7 3 0 2 2 4 5 4 2 4 4 0 2 2 6 11 6 3 2 2 4 8 3 6 8 11 11 11 8 7 10 10 11 10 8 6 6 6 6 9
5 4 3 3 3 3 4 4 5 7 8 10 10 11 12 12 12 10 8 8 6 5 3 1 6 6 1 5 5 3 7 7 6 6 3 4 4 4 4 3 3 3 2 1 1 1 2 4 5 3 2 1 1 3 4 4 3 2 2 3 2 3 5 10 8 4 3 2 2 4 3 5 7 10 11 11 9 7 9 12 12 9 8 8 6 7 8 9
5 3 3 3 3 3 4 4 5 7 8 10 12 11 12 13 11 7 5 4 3 3 3 3 4 3 1 3 1 1 4 4 6 7 5 5 4 4 6 4 3 3 2 1 1 1 3 4 2 2 1 2 2 2 3 4 4 2 2 4 4 3 3 6 7 4 3 2 2 1 3 4 5 8 10 10 10 9 9 12 12 10 10 7 7 9 9 8
4 3 4 4 3 4 5 5 5 7 9 11 12 12 13 13 10 6 4 2 2 2 1 1 1 1 2 2 0 2 4 5 7 7 5 6 6 7 7 4 4 5 5 4 3 2 3 3 1 1 1 1 2 4 3 2 4 3 2 4 4 5 3 3 6 6 3 3 2 3 4 6 7 8 10 11 12 11 10 9 9 9 7 6 9 9 9 10
5 5 5 4 3 5 6 6 6 9 11 12 12 14 14 11 7 6 4 2 3 2 1 1 1 0 2 2 2 2 3 6 8 6 7 9 8 8 6 3 5 6 5 3 2 2 2 2 2 1 1 1 2 4 3 5 5 4 4 4 4 4 4 5 6 5 4 4 5 6 6 8 9 9 10 12 11 9 8 6 8 7 4 8 9 9 9 11
7 6 5 5 3 5 7 7 7 10 12 11 11 12 10 5 3 2 2 1 1 0 1 2 3 2 3 3 3 3 5 8 8 5 8 10 9 8 4 3 6 5 4 1 1 2 2 3 4 1 2 4 6 7 9 9 7 7 6 4 5 5 5 6 6 5 4 5 7 7 7 6 8 9 11 14 9 6 8 7 5 4 8 9 9 9 9 11
6 5 5 5 4 5 7 8 8 9 12 12 11 9 4 3 2 1 1 1 3 5 3 4 6 3 5 3 4 6 6 7 4 3 8 9 8 7 2 2 4 3 2 4 2 2 3 4 2 5 7 9 11 11 11 9 7 6 5 4 5 5 6 5 6 6 3 2 6 5 4 6 8 10 14 15 9 7 8 4 5 7 9 8 9 9 9 10
5 4 5 4 4 5 7 8 8 9 10 10 10 6 2 2 1 1 3 3 8 12 9 10 11 9 11 6 6 8 4 2 1 3 9 8 7 6 1 1 4 0 3 4 2 0 4 4 7 11 11 11 9 8 8 7 6 5 5 4 5 5 6 5 6 7 3 2 5 4 5 7 9 11 16 15 9 8 5 4 8 9 10 8 9 10 9 8
4 3 3 4 4 6 7 8 8 9 8 6 6 3 4 2 2 1 1 3 8 11 11 13 13 11 15 11 7 7 3 2 2 3 7 8 5 4 3 3 5 4 4 4 3 2 2 5 12 12 9 7 7 5 6 7 6 5 4 2 4 4 3 6 6 4 3 1 5 6 6 8 9 12 17 12 5 5 5 8 8 9 11 8 9 8 8 9
5 4 3 4 5 7 8 8 9 9 6 4 4 3 3 2 2 3 2 0 6 8 7 8 7 7 9 6 6 6 3 4 3 4 9 10 4 4 4 5 6 4 3 5 6 5 3 7 12 10 6 5 7 7 7 6 5 5 4 2 5 4 1 4 5 4 4 2 3 4 6 5 7 12 11 6 6 7 9 12 11 10 11 10 9 8 8 10
6 5 4 6 6 7 8 9 10 7 4 3 2 2 3 2 1 3 1 0 4 6 3 3 2 2 2 2 4 5 2 3 2 3 11 11 4 2 4 6 7 5 4 7 8 8 7 7 6 5 5 6 7 8 7 5 4 4 4 5 5 4 4 6 4 4 5 5 2 3 5 4 5 11 7 4 7 7 8 11 11 9 9 10 10 10 10 10
9 9 9 9 7 7 8 10 7 2 3 2 1 0 2 2 2 3 1 1 3 5 1 1 1 1 2 3 3 3 2 1 1 1 8 8 2 2 2 3 4 5 6 7 7 7 10 6 3 5 6 5 6 7 6 5 3 4 4 8 8 7 7 5 3 4 4 5 4 4 4 6 5 7 7 2 6 7 6 8 10 8 8 9 10 9 9 9
13 14 14 12 9 8 7 6 3 2 2 1 3 1 1 1 2 3 2 3 2 4 1 1 1 1 2 2 1 3 3 1 2 1 5 3 1 2 2 1 1 4 5 5 3 3 6 2 3 5 6 4 4 5 5 6 4 3 5 6 6 6 4 2 2 3 1 2 4 2 1 6 4 5 8 3 8 6 5 8 9 7 7 8 8 7 7 8
17 18 17 15 12 9 5 2 4 3 1 2 3 0 1 2 2 3 1 3 3 2 2 0 1 2 2 1 2 4 2 2 1 2 3 2 1 1 1 2 1 2 2 2 1 3 4 2 4 4 3 4 4 5 5 6 6 4 5 3 5 3 2 2 2 1 3 2 5 2 4 5 4 6 7 5 10 6 6 7 7 7 8 8 8 7 7 7
22 22 21 18 15 13 10 5 4 4 3 4 2 1 1 1 2 3 2 1 3 1 2 1 1 2 1 1 3 3 1 1 2 2 2 3 1 2 1 4 3 3 3 4 3 5 2 3 3 4 4 3 5 6 5 7 5 6 5 4 5 4 4 3 2 2 2 2 5 5 5 3 5 6 3 7 9 5 6 6 6 7 7 8 8 7 7 6
22 22 21 18 14 15 14 10 5 5 6 3 0 2 1 0 2 2 2 1 1 1 1 0 2 1 1 3 2 1 1 1 2 2 2 2 0 1 1 4 2 2 4 4 5 6 1 4 7 7 4 5 6 4 3 7 4 4 2 4 4 2 2 1 1 1 2 2 4 6 5 3 5 6 1 5 5 5 6 5 5 6 6 7 7 6 5 5
18 18 17 15 13 14 14 12 10 8 6 3 1 2 0 1 2 2 2 2 1 0 1 1 1 1 3 3 0 1 2 1 2 1 1 1 1 2 0 1 2 2 2 3 3 5 2 1 2 4 4 5 4 1 2 4 4 2 5 5 6 5 3 3 1 3 3 2 6 8 8 6 3 5 2 2 4 9 9 6 6 6 6 6 5 5 5 5
15 14 14 14 14 14 10 8 11 11 7 5 3 0 1 2 2 2 3 1 1 1 1 1 1 2 3 3 2 2 3 2 2 3 1 1 2 2 2 1 2 3 3 4 4 4 2 0 2 3 3 4 5 2 2 3 2 5 5 4 4 5 4 4 4 3 1 5 7 7 7 7 5 4 2 3 1 8 10 9 10 8 7 5 5 4 4 4
13 12 13 14 13 13 9 5 9 11 9 7 4 1 2 1 1 3 2 0 1 1 1 1 2 2 3 2 2 3 3 2 3 4 4 3 2 2 2 3 3 2 3 3 2 4 2 4 4 3 2 4 5 1 3 5 4 5 4 4 2 4 3 2 2 0 2 6 6 3 2 4 6 3 3 6 6 6 6 8 10 10 8 6 5 4 3 4
12 11 13 14 14 13 10 7 9 10 9 9 5 2 3 1 3 3 3 2 1 1 1 2 2 3 3 2 1 3 3 2 4 4 3 4 3 3 4 5 6 3 2 4 1 2 3 5 2 1 3 3 7 5 2 2 1 5 4 4 3 1 0 3 3 2 3 5 4 2 1 1 5 2 4 5 5 6 9 9 8 8 8 6 5 4 3 4
12 11 11 12 13 13 11 8 8 10 10 8 3 4 3 3 3 3 4 4 2 1 0 2 2 2 2 2 3 3 2 3 4 5 3 4 3 3 4 6 6 4 2 2 2 2 2 6 3 5 3 3 7 5 4 4 3 5 5 5 5 4 3 4 3 3 4 4 4 3 1 2 3 0 3 4 5 7 9 8 7 7 6 5 5 4 4 4
11 11 11 11 12 12 11 8 8 11 10 5 4 3 4 4 1 2 4 4 1 1 1 1 2 1 1 2 3 2 3 3 2 5 4 4 4 4 4 5 7 6 3 2 2 2 4 6 5 3 1 5 6 3 3 6 1 2 4 4 2 4 4 2 3 4 3 3 4 2 2 2 2 2 3 4 5 7 7 6 7 6 5 4 4 4 3 4
8 9 9 9 11 12 12 9 9 10 7 4 4 3 4 2 2 3 2 2 1 1 1 2 1 2 3 2 3 3 3 3 2 3 2 3 4 5 4 3 5 7 6 4 3 1 3 5 3 1 2 3 5 2 2 4 1 0 3 3 4 4 5 1 4 2 1 3 4 3 2 1 2 1 2 4 5 6 5 5 6 5 5 5 4 4 3 3
6 5 4 5 9 12 12 11 9 8 4 4 3 4 2 2 3 3 1 1 0 2 2 1 1 3 3 2 2 3 2 2 2 3 2 3 3 4 5 3 1 5 6 4 3 2 3 4 4 2 1 3 4 3 1 1 4 4 2 4 3 1 3 2 1 2 1 4 4 3 5 4 2 2 1 3 4 5 4 4 5 4 4 4 4 3 3 3
5 4 1 5 9 11 12 12 9 6 3 3 5 5 3 2 3 3 2 2 1 2 2 2 3 3 4 3 2 2 3 2 2 3 2 2 4 3 5 2 1 0 2 3 2 2 2 2 6 2 3 3 1 3 3 4 2 4 4 3 1 1 2 0 2 2 3 4 4 5 7 5 4 4 5 6 7 7 6 5 5 4 4 4 4 4 4 3
6 4 1 4 9 12 14 13 8 3 2 4 6 4 3 3 5 6 4 2 0 1 2 5 5 3 4 5 3 2 4 4 3 3 2 3 4 1 3 2 1 2 2 5 4 2 1 2 5 3 1 1 3 3 2 3 3 3 1 2 1 3 3 2 2 3 3 4 4 5 5 4 4 5 8 10 10 10 9 7 6 6 6 5 5 5 4 4
5 3 1 3 8 13 16 12 6 2 3 5 4 3 2 3 5 8 8 5 3 3 4 6 6 6 6 4 3 3 3 4 5 4 3 3 4 2 2 1 2 1 4 6 4 0 2 2 4 4 4 1 1 1 5 4 1 2 2 1 2 1 1 2 2 2 3 3 3 4 5 4 4 2 7 11 10 10 9 8 6 7 7 6 5 5 5 4
3 2 2 4 11 17 17 10 3 3 3 4 4 4 5 4 3 5 8 9 7 4 3 5 6 6 5 4 3 3 2 3 4 4 3 4 4 2 1 1 1 1 3 5 3 1 1 1 3 3 4 1 4 5 5 6 5 4 2 3 3 2 1 2 4 2 3 3 3 4 5 5 4 1 4 9 9 8 8 8 7 8 7 7 5 5 5 5
2 1 3 8 17 20 15 5 3 4 3 5 4 3 5 5 4 4 4 5 7 5 2 3 5 4 3 3 3 3 2 3 4 5 4 4 3 2 1 1 0 2 3 2 0 1 2 3 1 3 4 4 7 6 1 4 5 5 3 2 3 3 3 3 4 3 1 2 2 2 2 2 2 1 3 6 7 7 8 8 7 6 6 6 5 5 5 5
2 2 4 13 21 19 9 2 4 4 5 4 2 2 4 3 4 5 4 4 5 5 3 3 4 5 4 3 2 2 2 2 4 5 3 2 2 1 4 4 2 3 3 2 1 2 3 3 1 3 5 4 5 4 4 4 3 3 1 1 2 3 3 4 4 2 1 3 3 3 4 3 2 2 3 5 5 6 6 6 6 5 5 6 6 5 5 5
3 2 2 11 21 16 6 4 6 7 8 4 2 4 4 3 5 5 5 5 4 4 4 3 4 5 4 3 3 4 4 2 4 4 3 2 1 1 6 6 2 3 1 1 2 0 1 1 2 0 3 5 6 5 5 5 3 2 1 2 2 3 2 2 1 1 1 4 5 5 6 3 1 2 2 4 4 4 4 5 5 6 6 6 5 5 5 5
2 2 2 6 14 10 3 3 3 4 8 6 5 7 5 4 5 5 6 5 4 5 4 3 4 5 4 3 3 5 5 4 3 3 0 1 0 2 5 6 3 3 1 1 2 3 2 2 3 3 4 5 4 3 2 2 2 1 2 3 1 2 2 1 1 1 2 2 2 3 5 3 3 4 3 3 3 4 5 5 4 4 5 6 5 5 5 5
2 2 1 2 6 6 3 1 0 1 4 5 5 7 8 7 4 4 7 5 5 5 4 3 3 3 3 4 5 5 5 4 3 2 1 1 1 2 3 4 4 2 3 2 3 4 3 1 2 5 7 7 5 5 4 3 1 3 5 7 7 6 3 2 2 3 2 1 3 6 7 6 8 10 5 3 4 6 6 5 5 5 5 6 6 5 5 5
1 2 3 4 3 5 4 3 4 4 2 3 4 4 8 10 6 4 6 6 6 6 4 2 4 5 5 5 5 4 4 3 3 3 3 3 1 1 2 3 4 2 1 2 3 3 4 1 3 6 6 7 5 4 1 3 1 5 6 9 11 10 6 4 5 4 2 2 7 10 8 6 9 13 9 3 5 6 6 6 7 7 6 6 5 5 5 4
1 0 2 3 2 5 7 6 8 10 7 4 3 3 4 8 8 6 5 3 5 7 5 3 5 8 7 6 5 4 4 4 4 4 3 3 3 1 2 2 2 2 3 3 3 4 5 3 4 4 3 7 5 3 3 1 2 5 6 9 12 13 12 9 8 7 5 6 10 11 10 9 11 13 9 5 6 7 7 7 5 5 7 6 6 6 5 5
1 1 2 0 1 4 6 6 9 13 13 8 4 5 5 6 7 7 3 2 3 6 6 6 6 7 7 7 6 4 5 5 5 4 3 2 2 3 1 1 2 1 4 2 1 2 3 2 2 3 3 7 5 3 3 3 4 6 8 11 13 15 13 10 9 10 9 9 12 10 10 13 13 9 6 5 6 5 3 2 3 6 7 6 6 6 6 5
1 1 1 1 1 1 2 3 7 10 10 9 8 9 7 6 7 4 2 4 4 3 5 8 7 6 6 7 7 6 7 7 6 5 5 4 2 2 2 2 2 1 3 2 1 2 2 1 1 3 1 6 3 1 2 4 5 6 10 14 15 14 12 11 11 9 7 9 11 8 9 12 10 5 3 2 2 3 4 4 4 5 6 6 6 6 6 5
2 0 2 2 1 2 1 2 5 6 6 7 9 9 7 9 8 3 1 2 5 4 5 9 8 4 3 5 7 7 6 6 7 6 6 6 4 3 2 2 3 3 1 1 0 1 2 1 1 4 2 5 2 4 1 5 5 7 14 19 18 13 10 10 9 7 8 9 8 7 8 10 8 4 2 1 4 5 5 5 5 4 5 6 6 5 5 5
3 2 2 4 1 2 2 2 4 5 5 6 7 8 7 7 6 5 3 2 3 1 3 7 9 5 3 5 7 6 6 7 6 5 5 4 3 3 2 2 4 5 4 3 1 1 3 3 1 2 1 6 2 4 3 1 3 8 12 13 14 11 9 9 8 8 10 8 6 7 8 8 6 5 5 2 2 4 4 4 4 3 3 4 5 5 5 5
Wind_Direction
318 327 322 325 325 323 320 315 319 323 324 319 319 326 327 327 326 326 327 330 331 329 329 330 334 336 336 335 333 330 329 325 322 315 289 291 293 265 286 302 312 266 166 157 153 152 154 176 215 181 128 48 81 127 306 225 80 60 83 112 234 221 211 216 243 311 285 296 306 301 14 69 344 322 333 330 336 281 284 284 261 262 255 248 261 273 255 191
343 345 333 336 333 331 325 317 319 319 317 314 319 322 320 323 319 321 322 325 325 322 324 326 330 332 334 336 333 333 329 324 320 308 293 298 278 240 258 291 315 180 168 164 170 176 165 196 218 173 109 45 270 60 326 286 97 103 134 153 223 211 226 256 288 313 324 299 305 315 12 45 320 304 342 285 287 297 291 283 283 281 269 262 275 280 212 191
346 344 334 338 333 326 321 319 319 314 316 315 316 317 318 321 316 319 320 321 321 318 320 321 325 328 332 334 334 336 328 324 320 303 305 108 132 167 138 87 59 147 170 166 176 196 199 231 199 168 116 191 243 108 105 289 211 176 141 178 239 224 257 288 293 306 308 298 318 318 344 350 296 291 340 286 285 289 269 269 281 282 276 266 274 238 189 192
338 333 325 328 326 319 319 320 317 313 315 310 312 315 318 318 317 320 319 321 318 317 317 320 327 326 330 334 335 335 328 334 321 247 129 124 133 138 128 75 42 148 172 165 181 218 243 275 183 159 131 239 280 93 157 224 205 177 146 189 234 223 259 272 281 300 307 322 331 310 328 323 290 276 300 303 302 284 253 248 250 266 276 267 261 235 187 192
333 330 325 329 330 324 326 327 320 318 318 317 321 321 322 321 321 322 322 323 320 319 319 322 329 327 330 335 332 330 341 10 272 207 143 137 140 133 119 63 20 185 179 175 197 211 249 295 97 101 95 227 303 57 222 220 170 187 199 205 224 222 257 265 276 294 298 313 321 319 315 296 296 302 244 267 285 268 254 246 240 251 266 269 269 264 205 196
334 334 328 331 333 328 330 330 324 325 324 324 326 326 328 325 325 325 324 323 321 321 321 325 332 329 330 334 328 333 11 0 237 193 173 172 150 126 20 326 280 192 181 183 210 198 229 318 67 83 120 192 246 214 246 234 156 213 255 226 228 230 242 263 283 296 305 299 289 288 283 283 342 303 235 207 251 258 261 250 247 255 262 272 278 278 253 232
326 328 324 329 330 326 327 327 326 328 328 328 329 329 329 327 327 325 324 323 320 320 321 327 332 327 331 328 299 7 72 242 256 246 232 221 210 290 295 280 246 188 185 183 201 195 176 149 153 186 162 237 224 214 255 277 169 203 263 250 239 243 247 281 302 308 315 278 256 270 305 308 292 287 258 224 254 263 268 260 256 262 267 277 283 275 263 255
318 319 320 326 322 318 320 322 329 330 328 329 328 329 329 327 325 323 323 320 318 319 321 327 330 328 339 284 202 18 353 250 265 261 235 228 251 281 281 271 216 192 192 192 209 201 157 176 211 202 192 248 234 243 284 337 230 214 253 254 262 280 282 304 308 300 298 277 268 296 297 275 242 265 284 266 270 270 269 272 266 266 273 276 274 267 260 257
313 316 318 321 317 317 319 321 328 328 328 327 326 327 327 324 322 321 319 316 316 318 321 329 327 323 320 152 102 44 261 247 258 244 224 232 259 261 230 226 199 196 196 212 230 238 186 210 228 201 182 234 274 299 321 32 280 251 294 308 314 300 291 307 306 289 284 278 280 288 280 272 242 260 278 260 262 269 276 286 276 274 275 265 263 261 256 256
307 315 312 306 306 310 315 325 329 329 330 327 327 329 326 324 324 322 319 318 319 318 324 333 329 279 198 156 95 120 255 259 264 245 226 230 232 182 179 166 181 197 202 241 259 278 248 218 235 177 158 246 277 291 330 59 254 295 5 333 306 296 298 294 287 282 280 276 264 249 265 273 244 211 272 256 251 268 294 296 285 282 272 262 262 265 265 266
302 308 303 299 295 304 323 336 337 339 338 335 334 332 329 329 329 326 324 322 321 322 328 335 327 176 172 145 129 207 252 264 266 251 208 170 145 153 164 150 163 194 212 268 315 8 39 90 60 114 157 329 336 315 318 289 290 328 357 337 308 310 312 287 276 277 276 276 245 205 245 279 260 183 248 260 263 281 298 291 290 289 278 273 272 285 306 297
287 294 303 307 309 335 350 345 347 348 345 341 337 333 330 330 328 326 325 324 322 323 327 332 295 178 152 127 204 229 239 242 243 207 149 141 140 156 162 166 178 191 210 237 53 49 47 52 63 80 256 355 352 320 308 289 338 322 333 334 300 322 314 280 271 263 254 253 210 156 230 292 246 228 245 258 274 294 293 283 286 286 279 287 307 318 308 292
277 287 301 309 330 351 352 347 350 350 348 343 336 333 328 325 324 323 323 322 323 323 323 328 212 176 150 233 237 233 235 234 231 217 191 200 208 175 180 192 196 200 208 180 90 57 47 45 73 107 232 63 294 287 330 338 359 318 322 270 288 337 309 273 267 260 257 234 170 143 208 273 242 248 254 262 276 289 287 280 283 287 290 313 332 315 306 331
273 284 297 308 333 341 338 342 345 346 346 341 335 330 324 322 319 317 319 321 324 325 321 313 182 161 142 252 260 250 236 232 234 236 225 212 179 160 186 205 205 207 217 194 124 56 43 42 62 81 76 126 236 310 345 341 343 299 314 53 265 300 279 280 280 268 273 260 156 142 207 256 253 262 268 275 279 285 294 288 283 291 309 324 323 323 358 33
268 278 285 291 310 318 325 331 337 342 340 336 331 325 319 316 314 311 313 320 333 338 345 111 167 145 69 277 276 262 222 214 214 209 194 182 154 143 171 187 190 183 203 214 132 45 51 60 66 78 288 257 194 346 346 335 321 275 289 312 282 197 260 295 290 250 208 268 34 129 219 260 262 267 270 276 283 293 296 286 289 306 315 319 340 22 47 51
265 260 263 271 286 298 312 321 336 338 334 332 326 319 313 309 308 301 299 321 354 11 47 94 161 145 354 275 276 204 194 192 195 186 175 178 164 143 142 131 117 117 110 66 82 103 92 82 79 131 229 295 153 119 33 355 323 294 201 247 264 226 263 304 300 292 146 117 6 213 239 272 271 270 270 278 289 294 285 284 300 311 308 330 32 54 59 50
258 245 248 257 275 300 311 319 340 341 334 330 324 316 309 307 298 277 273 312 343 348 49 77 155 180 278 239 279 238 193 186 189 188 183 175 165 151 140 113 103 110 96 71 78 105 90 84 114 135 115 265 164 118 53 331 283 291 238 226 248 244 258 290 296 312 59 83 308 261 238 251 264 275 279 281 279 278 276 287 299 295 309 23 66 66 58 51
247 240 240 247 280 314 310 314 341 347 337 330 326 318 310 310 293 262 248 279 323 331 334 8 100 168 268 233 226 209 168 171 171 172 175 165 161 163 152 112 119 111 81 46 35 82 52 40 96 76 347 282 178 143 180 231 226 236 238 238 265 261 263 271 275 302 346 342 304 282 267 265 272 277 276 269 263 271 281 288 294 303 18 72 78 69 63 57
240 235 241 249 271 307 308 324 347 349 338 330 332 324 318 330 313 259 223 266 346 168 231 220 166 171 254 240 204 142 124 150 151 149 166 163 165 171 160 114 119 105 86 45 315 143 120 60 73 93 242 223 213 196 205 221 215 220 232 238 259 262 267 266 261 283 321 318 287 267 266 276 286 289 286 280 281 299 295 300 323 10 72 86 78 70 65 59
239 241 256 259 269 303 320 340 350 350 342 336 343 343 346 25 4 347 322 235 208 231 251 223 204 232 279 271 138 141 137 145 156 175 174 170 162 154 141 83 87 59 122 156 201 204 131 110 156 205 215 218 218 213 218 231 230 234 253 260 254 249 265 273 273 284 337 347 270 264 294 295 292 297 289 286 304 319 301 331 60 80 84 82 77 72 65 62
242 247 257 261 278 306 323 339 349 350 343 339 348 358 104 122 30 322 305 289 251 249 254 250 238 242 259 252 154 161 162 149 235 207 182 172 149 142 173 124 105 270 223 158 148 180 112 150 216 218 218 226 228 223 229 246 248 242 241 252 265 253 262 278 279 288 352 41 271 304 348 306 294 293 284 288 316 322 315 91 101 92 86 79 76 71 65 67
228 234 250 272 294 312 320 339 349 341 340 348 359 43 126 135 121 146 250 306 278 253 242 253 252 248 254 251 203 177 167 193 245 240 192 166 151 177 194 141 150 211 206 130 108 121 139 220 237 229 223 245 263 251 240 251 256 256 249 254 278 270 288 297 293 307 10 18 277 311 323 293 290 280 279 296 345 9 37 87 93 85 86 76 71 71 66 64
215 221 251 285 301 314 322 340 338 330 340 4 20 80 109 86 114 137 147 301 289 264 233 243 246 245 253 241 186 159 163 208 219 240 193 164 164 200 172 165 190 211 184 165 159 151 181 234 240 235 221 237 266 263 253 261 266 259 255 260 273 279 319 284 295 327 338 287 262 299 296 283 280 270 281 335 64 79 66 77 77 77 85 78 73 71 63 63
235 242 259 276 293 311 317 324 323 323 326 333 24 87 80 48 145 171 169 206 284 276 245 223 212 205 219 154 148 147 167 202 190 226 188 170 162 164 175 184 189 208 211 192 174 180 221 230 222 230 217 202 233 259 253 246 267 263 226 217 244 259 230 231 275 328 330 322 336 9 323 289 249 258 279 48 84 81 72 81 77 71 79 80 75 66 60 62
244 253 257 264 281 299 302 309 313 309 298 283 209 218 64 38 236 182 148 19 292 288 275 132 41 81 126 92 126 147 129 169 275 225 175 176 172 130 202 195 177 219 223 196 178 204 243 242 197 239 254 215 208 247 234 194 242 289 236 217 221 229 235 247 330 9 14 336 323 47 6 291 250 255 266 136 92 62 58 72 76 71 71 75 70 64 62 59
239 247 251 250 255 273 290 295 261 217 297 234 203 270 51 310 256 176 115 40 297 278 185 140 9 133 151 97 115 110 89 270 283 104 133 162 254 135 209 242 173 221 215 193 176 219 251 240 149 204 233 215 204 250 232 167 152 277 251 213 197 196 208 243 18 29 45 255 278 72 102 274 269 255 259 154 98 80 71 68 73 71 63 69 69 64 63 58
242 246 249 245 236 237 253 245 209 213 274 199 204 224 56 277 236 173 102 29 287 250 125 225 328 124 158 173 119 105 126 230 0 36 90 86 321 88 161 243 185 224 225 118 77 249 218 126 77 120 161 182 206 253 234 160 137 231 254 125 113 129 159 184 118 170 228 250 305 277 181 256 279 247 244 125 103 95 88 77 73 75 70 72 68 61 60 58
245 246 249 247 234 225 227 225 209 198 183 180 180 60 25 252 180 140 84 27 275 208 114 270 90 104 101 87 91 103 160 162 103 307 351 66 343 60 110 228 190 245 263 129 179 263 207 160 178 148 136 184 206 234 206 147 149 236 233 114 102 125 153 167 140 212 258 344 308 258 186 231 274 262 240 121 123 134 123 105 87 82 77 76 72 64 60 56
243 244 246 243 229 220 222 223 214 195 186 176 106 349 332 164 119 87 95 170 288 58 79 90 114 101 45 67 55 110 123 68 140 243 342 65 225 87 170 222 175 270 275 157 196 252 220 188 190 147 148 208 216 240 171 146 188 237 167 93 61 69 109 122 151 153 6 349 254 232 186 197 269 283 300 120 147 166 143 114 96 88 80 76 73 66 56 54
235 236 237 227 211 204 205 216 220 205 193 202 257 312 329 90 77 90 182 192 29 79 114 94 139 128 101 99 338 185 158 172 141 113 17 90 10 14 278 237 78 66 326 351 259 246 256 243 190 146 180 199 174 137 98 140 177 122 77 51 22 8 16 33 80 89 52 285 244 223 201 190 265 287 244 172 181 161 146 130 122 103 84 79 69 64 54 51
223 223 218 206 197 189 184 208 217 208 202 202 210 251 77 59 84 161 206 174 58 228 130 84 173 120 137 146 135 158 166 182 153 121 135 133 51 21 7 358 34 50 7 339 302 285 328 16 228 234 207 147 111 102 17 26 92 91 74 62 18 339 9 29 8 49 102 252 258 239 204 184 223 267 297 335 24 137 142 147 143 123 102 94 79 74 65 59
205 203 195 188 183 179 173 182 198 201 199 178 162 128 95 61 201 191 220 46 72 219 174 176 191 164 182 172 156 187 180 191 181 157 165 156 144 185 193 184 160 55 325 264 283 318 288 223 233 273 243 151 124 119 330 356 44 88 86 83 39 319 0 7 312 124 207 247 258 243 157 177 226 251 17 12 25 71 102 122 129 123 120 117 104 97 81 72
184 180 179 176 172 172 170 166 178 186 180 163 144 88 103 174 223 190 200 223 212 213 135 109 161 168 140 101 255 209 179 211 190 171 172 146 157 232 245 223 180 149 232 216 255 326 297 290 262 208 291 187 147 158 237 284 122 137 143 138 151 185 206 261 254 245 267 266 262 265 79 239 258 309 34 39 46 67 85 97 108 118 124 129 127 118 91 74
173 172 176 172 171 174 163 157 172 169 163 160 118 73 126 201 226 184 203 228 251 219 141 82 125 139 110 156 230 185 156 258 187 161 169 139 153 239 249 242 213 173 164 204 239 199 245 299 244 182 262 183 169 189 176 150 153 174 165 144 149 168 195 236 232 223 259 275 285 299 299 211 223 0 44 60 71 78 90 101 105 107 117 125 118 106 91 78
171 172 176 175 181 182 166 160 171 165 164 153 80 98 185 206 204 176 210 238 298 60 6 18 95 90 295 239 244 197 179 250 189 148 175 171 178 209 204 214 205 182 158 193 233 183 203 261 252 204 164 147 174 242 123 110 95 231 145 118 168 194 185 237 245 204 205 289 292 275 240 207 148 93 63 75 77 76 84 98 106 108 114 114 108 104 100 90
163 164 170 182 191 190 180 178 176 172 170 115 92 190 213 202 180 186 211 233 198 90 12 328 106 169 254 259 267 254 211 233 210 158 212 217 207 215 208 209 193 180 171 182 222 216 203 256 283 15 31 152 171 199 130 138 195 279 112 171 222 185 138 150 282 261 124 266 259 217 243 299 88 87 73 86 81 81 90 105 116 126 124 120 127 128 121 110
144 142 157 195 201 193 189 188 183 182 164 106 154 215 202 194 215 207 251 356 82 63 55 280 189 178 218 242 249 243 230 263 233 185 227 254 242 216 201 224 202 178 187 191 220 217 182 259 278 162 167 246 182 141 13 122 138 125 164 221 233 64 78 106 257 306 286 249 258 243 244 242 205 236 157 123 118 117 140 141 126 131 134 143 161 159 160 154
119 108 150 228 212 196 192 194 188 176 122 129 207 227 187 204 238 221 243 297 356 42 59 229 219 177 200 221 235 208 183 217 219 193 206 242 247 207 172 197 357 334 217 154 157 249 153 246 284 227 164 257 23 80 353 339 62 129 181 218 127 108 288 293 146 223 242 249 274 265 250 242 227 214 178 173 171 161 171 166 153 168 175 176 180 187 197 182
120 100 330 229 201 194 192 189 178 149 141 188 214 226 197 220 243 233 242 295 19 166 214 228 223 216 222 210 208 202 186 198 205 197 189 211 238 232 113 153 120 346 355 103 135 248 102 166 275 308 147 245 24 60 197 285 354 48 39 343 55 165 194 211 183 181 212 240 262 258 249 252 247 208 172 178 178 169 173 175 179 189 190 192 187 190 201 191
123 90 310 189 171 177 176 167 154 158 211 215 208 202 203 232 236 229 228 224 210 207 215 220 216 223 237 223 206 208 201 207 207 204 203 211 240 298 38 93 119 42 19 61 102 81 52 168 241 305 334 27 34 214 182 177 135 52 34 317 286 245 200 254 239 158 159 208 242 250 250 252 264 216 164 174 176 172 171 168 184 201 199 197 192 190 197 191
111 69 246 172 154 158 153 147 171 190 214 237 225 211 219 233 236 225 223 217 217 219 199 209 217 219 231 235 213 191 197 220 214 211 227 232 252 265 186 90 122 150 49 43 52 77 70 188 201 281 307 219 228 235 166 138 135 139 174 210 204 204 221 273 264 211 159 184 197 222 257 268 281 303 151 163 165 168 171 170 187 204 198 193 197 195 193 190
113 126 188 158 157 159 151 152 201 178 217 229 213 213 215 223 236 220 210 207 211 218 214 217 220 214 222 225 201 176 183 216 217 217 229 237 242 236 219 318 0 122 99 91 146 122 111 110 126 254 256 228 241 256 151 134 158 161 197 215 162 155 149 193 243 243 213 226 190 184 239 261 275 286 139 153 163 170 177 181 190 198 188 185 195 193 185 185
148 149 153 156 165 169 163 192 197 193 231 217 171 229 216 210 233 213 191 189 196 203 214 221 213 217 226 203 172 195 199 208 226 222 225 235 226 284 321 326 9 72 78 126 236 16 71 91 94 274 287 296 289 309 15 35 101 130 270 318 123 150 157 172 210 225 233 244 244 262 258 243 283 329 99 126 146 161 182 191 179 175 180 183 186 181 174 173
145 109 111 169 178 183 186 201 196 207 224 215 195 233 227 221 230 207 189 193 184 177 195 218 211 214 222 189 169 205 207 220 260 246 214 200 195 0 340 338 35 86 60 186 187 135 82 127 119 127 299 314 325 334 357 6 36 106 262 279 131 138 121 96 117 135 221 230 225 249 257 243 270 323 60 92 123 159 208 212 173 166 180 184 183 180 174 171
127 108 50 178 193 204 217 197 183 205 220 222 229 232 234 240 224 191 181 198 193 171 179 220 208 189 201 201 196 219 214 202 241 264 146 124 315 5 349 345 40 108 169 217 140 122 137 169 133 131 212 247 268 261 242 353 2 349 288 296 266 221 239 304 327 233 231 227 200 228 251 267 274 248 194 137 159 209 243 238 206 192 186 179 179 181 178 178
134 159 102 149 208 234 259 242 170 205 210 208 224 232 225 230 239 185 181 208 218 190 182 203 176 160 196 196 186 221 230 200 198 226 138 121 265 313 342 1 36 101 166 110 73 90 110 196 174 163 203 230 231 217 185 99 19 282 292 296 286 273 246 189 206 225 219 250 257 243 241 260 273 265 247 178 192 226 238 228 218 212 193 181 181 182 178 178
145 173 164 156 197 228 238 245 226 218 213 189 209 234 216 216 232 215 200 213 204 186 194 213 180 184 204 184 175 217 226 196 203 216 190 161 160 310 356 45 42 16 77 64 37 85 103 267 221 172 210 244 231 218 197 76 187 241 269 282 280 280 269 220 221 232 215 266 263 256 253 254 261 268 274 238 212 236 249 244 230 207 188 180 172 167 166 170
189 149 191 168 160 206 213 216 211 215 227 223 226 273 227 202 202 209 212 213 189 183 195 231 209 196 187 167 172 206 203 204 224 217 195 166 140 138 351 17 7 355 42 30 353 88 116 245 235 153 225 263 259 271 315 344 241 238 253 265 270 270 264 252 245 235 216 237 256 262 269 267 261 268 277 254 233 241 247 253 238 181 164 158 153 159 173 186
183 270 272 310 94 212 212 193 189 207 220 219 228 256 236 203 208 216 193 145 205 209 202 215 217 195 187 177 169 186 200 202 223 225 191 145 143 156 152 284 278 13 70 72 335 77 111 249 254 140 236 270 275 291 312 289 265 266 262 257 258 261 260 255 249 237 221 234 252 262 270 268 265 271 276 256 236 218 198 180 128 140 154 156 160 175 192 208
176 206 267 3 5 255 232 179 177 198 215 212 223 238 230 219 228 230 171 172 198 221 209 208 199 174 185 188 177 207 218 188 191 212 173 141 166 175 170 204 211 59 65 86 318 358 84 197 264 91 30 284 281 78 351 287 269 275 273 263 257 259 262 260 253 244 234 240 248 256 266 266 270 287 291 256 168 115 95 86 106 140 155 151 163 186 194 206
234 202 140 88 347 235 202 180 169 183 210 211 219 226 220 224 222 197 311 230 171 180 212 199 180 141 140 171 176 209 217 164 166 187 158 148 178 179 170 192 155 128 114 135 166 10 81 170 312 73 64 283 283 99 264 283 292 282 270 264 258 253 252 254 246 230 226 236 247 252 253 260 275 294 291 67 87 100 105 99 104 125 144 147 161 190 198 203
227 253 156 111 31 242 193 155 156 183 208 203 212 222 219 226 209 174 239 307 72 144 224 170 160 146 138 182 195 198 178 145 143 153 133 120 116 106 107 128 133 137 151 164 174 145 136 144 155 116 183 278 276 126 159 242 305 277 261 256 255 249 241 246 248 238 230 226 231 239 243 248 255 250 240 214 109 123 130 131 133 135 159 182 185 197 212 212